SCP
0 0 0 0 0 0 0 0 0 0 0 0 0 0 0 0 0 0 0 0 0 -0 -0 0 -0 0 0 0 0 0 0 0 0 0 0 0 1 0 0 0 0 0 0
0 0 0 0 0 0 0 0 0 0 0 0 0 0 0 0 0 0 0 0 0 -0 -0 -0 -0 0 0 0 0 0 0 0 0 0 1 0 0 0 0 0 0 0 0
0 0 0 0 0 0 0 0 0 0 0 0 0 0 0 0 0 0 0 0 0 0 0 0 0 -0 0 0 0 0 0 1 0 0 1 0 0 0 0 0 0 0 0
0 0 0 0 0 0 0 0 0 0 0 0 0 0 0 0 0 0 0 0 0 -0 0 0 0 -0 0 0 0 0 0 0 0 1 1 0 0 0 0 0 0 0 0
0 0 0 0 0 0 0 0 0 0 0 0 0 0 0 0 0 0 0 0 0 -0 0 -0 -0 0 0 0 0 0 0 0 0 1 1 0 0 0 0 0 0 0 0
0 0 0 0 0 0 0 0 0 0 0 0 0 0 0 0 0 0 0 0 0 0 -0 0 0 0 0 0 0 0 0 0 0 1 0 0 0 0 0 0 -0 0 0
0 0 0 0 0 0 0 0 0 0 0 0 0 0 0 0 0 0 0 0 0 0 -0 -0 0 0 0 0 0 0 0 0 0 0 0 0 0 0 0 0 0 0 0
0 0 0 0 0 0 0 0 0 0 0 0 0 0 0 0 0 0 0 0 0 -0 -0 -0 0 0 0 0 0 0 0 0 0 0 0 0 0 0 0 0 0 0 0
0 0 0 -0 0 0 0 0 0 0 0 0 0 0 0 0 0 0 0 -0 0 0 -0 -0 0 0 0 0 0 0 0 0 0 0 0 0 0 0 0 0 0 0 0
0 0 -0 -0 0 -0 0 0 0 0 0 0 0 0 0 0 0 0 0 0 -0 -0 -0 0 -0 0 0 0 0 0 0 0 0 0 0 0 0 0 0 0 0 0 0
-0 -0 -0 -0 -0 -0 0 0 0 0 0 -0 0 0 0 0 0 0 0 0 -0 -0 -0 0 -0 0 0 0 0 0 0 0 0 0 0 0 0 0 0 0 0 0 0
-0 -0 -0 -0 -0 -0 -0 0 0 0 0 0 0 0 0 0 0 0 0 0 -0 0 0 -0 0 0 0 0 0 0 0 0 0 0 0 0 0 0 0 0 0 0 0
-0 -0 -0 -0 -0 -0 -0 0 0 0 0 0 0 0 0 0 0 0 0 0 0 -0 0 0 0 0 0 0 0 0 0 0 0 0 0 0 0 0 0 0 0 0 0
-0 -0 -0 -0 -0 -0 -0 -0 0 0 0 0 0 0 0 0 0 0 0 0 0 -0 -0 0 0 0 0 0 -0 0 0 0 0 0 0 0 0 0 0 -0 0 -0 -0
-0 -0 -0 -0 -0 -0 -0 -0 -0 0 0 0 -0 0 0 0 0 0 0 0 0 -0 -0 0 0 0 -0 0 -0 -0 -0 0 -0 0 0 0 0 0 -0 -0 0 0 -0
-0 -0 -0 -0 -0 -0 -0 -0 -0 -0 0 0 -0 -0 0 0 0 0 -0 -0 0 -0 -0 0 0 0 0 0 0 -0 -0 -0 -0 0 0 0 0 0 0 0 -0 0 0
-0 -0 -0 -0 -0 -0 -0 -0 -0 -0 -0 -0 -0 -0 0 0 0 -0 0 0 0 0 0 -0 0 0 0 0 0 0 0 0 0 0 -0 0 0 0 0 0 0 0 -0
-0 -0 -0 -0 -0 -0 -0 -0 -0 -0 -0 -0 -0 -0 -0 0 0 0 0 0 0 0 0 0 0 0 0 0 0 0 0 0 0 -0 0 0 0 0 0 0 0 0 0
-0 -0 -0 -0 -0 -0 -0 -0 -0 -0 -0 -0 -0 -0 0 0 0 0 0 0 0 0 0 0 0 0 0 0 0 0 0 0 0 0 0 0 0 0 0 -0 -0 -0 -0
-0 -0 -0 -0 -0 -0 -0 -0 -0 -0 -0 -0 -0 -0 0 0 0 0 0 0 0 0 0 0 0 0 0 -0 -0 -0 -0 -0 0 0 0 0 0 0 0 -0 -0 -0 -0
-0 -0 -0 -0 -0 -0 -0 -0 -0 -0 -0 -0 -0 -0 -0 0 0 0 0 0 0 0 -0 0 0 0 -0 -0 -0 -0 0 0 0 -0 -0 -0 0 0 0 -0 -0 0 -0
-0 -0 -0 0 -0 -0 -0 -0 -0 -0 -0 -0 -0 -0 -0 -0 -0 -0 -0 -0 0 0 0 0 0 -0 0 0 0 0 -0 -0 -0 -0 -0 0 -0 0 0 0 0 0 0
0 -0 -0 -0 -0 -0 -0 -0 -0 -0 -0 0 -0 -0 -0 -0 -0 -0 -0 -0 0 0 0 0 0 0 -0 0 0 0 0 0 0 -0 -0 -0 0 0 0 0 0 0 0
0 0 0 -0 -0 -0 0 0 -0 -0 -0 0 -0 -0 -0 0 -0 -0 -0 -0 -0 -0 -0 -0 0 0 -0 -0 -0 -0 -0 0 -0 -0 -0 0 0 0 0 0 0 0 0
0 0 0 0 -0 -0 0 0 0 -0 0 0 0 0 0 0 0 0 0 -0 -0 -0 -0 0 -0 -0 0 0 -0 0 0 0 0 0 0 0 0 0 0 0 0 0 0
0 0 0 0 0 0 0 0 0 0 0 0 0 0 0 0 0 0 0 0 0 -0 -0 0 0 0 0 -0 -0 0 0 0 0 0 0 0 0 0 0 0 0 0 0
Wind_Speed_500mb
37 41 41 33 28 21 17 12 10 10 15 14 21 20 21 13 18 23 21 14 17 24 18 16 17 19 22 34 34 47 43 36 38 39 33 28 30 36 48 56 61 59 65
42 43 40 38 31 23 16 16 7 11 10 6 15 26 22 16 17 18 20 14 7 18 20 17 20 23 21 27 32 45 45 43 45 43 36 24 23 29 52 61 64 65 63
43 46 42 40 32 25 22 14 12 11 6 4 13 18 24 21 13 13 17 17 3 13 17 22 20 18 21 27 30 34 36 37 44 32 36 29 18 44 53 58 68 64 63
46 49 45 41 35 27 21 17 13 6 8 4 7 22 26 26 12 8 19 14 5 12 14 30 22 25 20 20 27 25 23 32 43 32 39 29 42 34 45 68 72 58 70
51 53 48 42 34 27 25 18 12 7 7 9 15 14 21 25 20 5 13 10 9 9 19 30 28 31 18 20 25 28 34 32 37 39 40 36 48 35 57 68 69 64 67
46 47 43 40 34 28 24 19 13 10 6 3 12 18 26 28 19 8 9 17 12 6 18 32 35 27 23 27 24 27 34 34 36 37 34 41 47 57 67 72 73 64 60
45 47 46 43 36 29 26 18 14 9 6 3 6 12 21 19 24 18 14 15 21 13 20 29 33 31 25 27 29 27 31 35 39 40 46 39 44 57 66 69 68 67 58
44 46 46 42 36 29 26 20 15 12 6 3 2 10 9 18 23 24 18 16 18 17 23 21 25 26 26 34 32 34 38 37 50 47 46 50 44 59 60 77 82 68 64
42 45 45 40 34 30 26 20 15 13 9 3 1 7 10 13 19 20 23 26 20 26 22 26 22 29 32 34 40 45 51 48 51 49 45 45 45 51 67 69 78 74 56
40 44 43 39 31 29 27 22 17 14 10 5 2 6 5 16 17 18 17 21 24 32 29 32 34 35 41 45 48 47 50 49 45 43 41 38 45 52 61 51 56 58 68
44 45 43 38 31 29 27 26 19 15 13 8 7 9 7 13 9 15 19 21 27 24 26 35 38 41 41 46 47 48 49 44 45 40 35 35 43 59 57 65 56 51 51
45 43 42 38 34 31 31 27 23 17 15 11 10 13 11 12 9 19 26 28 21 23 27 34 39 42 43 40 39 37 41 40 38 35 27 46 48 52 54 52 45 49 35
43 42 42 40 38 35 34 27 25 21 18 16 14 16 14 15 14 14 23 32 29 27 34 36 39 39 44 39 36 36 38 39 37 30 32 52 50 50 51 56 40 36 26
47 43 43 42 41 38 36 31 27 25 21 21 16 19 16 15 21 23 18 28 31 40 38 36 31 32 34 30 34 38 43 38 37 34 35 40 47 47 60 48 34 33 26
51 47 45 45 45 43 39 34 29 30 26 24 22 22 21 22 23 23 24 24 28 38 37 41 37 24 35 38 41 43 41 42 49 44 43 47 48 41 52 45 34 35 31
52 49 47 46 48 49 45 39 33 34 29 28 25 24 25 24 26 24 27 25 28 25 25 28 33 33 41 31 39 44 42 47 44 42 45 45 33 35 31 26 31 32 30
54 54 53 51 52 52 48 45 38 37 34 31 29 29 31 28 27 25 27 29 27 28 26 13 29 38 41 39 39 38 43 45 41 37 40 39 37 33 39 42 39 35 38
51 59 57 54 55 52 50 46 42 39 37 34 31 33 32 31 30 27 27 31 33 26 21 18 30 35 37 39 41 38 38 41 43 38 35 43 46 40 37 38 47 38 38
49 60 61 57 56 55 53 51 47 44 40 37 36 35 37 37 35 32 32 25 34 31 28 22 26 31 35 41 38 32 37 36 40 30 28 33 35 35 32 32 33 31 28
44 54 62 63 59 59 59 58 53 50 46 41 39 35 38 40 39 39 35 28 31 31 30 23 20 25 35 36 34 29 23 30 35 34 29 33 30 33 35 31 31 29 23
44 49 67 69 66 66 65 65 59 56 49 42 40 38 38 43 41 41 40 36 33 27 29 25 26 23 32 37 38 36 27 22 29 28 33 34 37 40 38 33 30 21 16
42 50 64 71 69 69 69 67 63 56 50 46 43 42 41 42 43 44 41 37 38 33 35 32 29 28 30 38 41 41 30 27 24 24 32 34 36 38 34 28 20 17 16
40 45 55 66 69 71 74 72 64 57 52 49 48 48 46 40 44 47 43 39 42 34 39 34 35 31 32 39 47 51 41 39 33 28 36 37 37 35 27 18 15 15 19
37 46 54 65 70 70 71 72 65 61 55 53 53 54 50 42 44 44 48 44 44 45 36 39 35 36 34 39 53 60 52 50 39 38 32 30 29 25 24 21 21 24 25
37 47 46 56 63 65 67 68 67 66 61 59 57 57 56 47 48 43 43 44 41 46 42 41 37 40 45 42 53 58 55 57 46 41 33 30 27 25 25 25 26 16 8
39 44 38 38 56 60 63 67 71 69 67 65 63 63 57 52 52 49 43 35 39 30 43 38 38 39 42 35 45 52 52 53 48 37 31 28 25 24 18 9 5 13 24
Wind_Direction_500mb
187 190 196 201 209 211 224 233 249 277 304 14 330 317 327 338 337 333 328 306 260 231 226 229 207 182 179 181 179 179 179 179 175 177 178 174 185 187 176 169 169 165 159
165 180 192 198 207 214 211 221 237 263 300 319 306 343 333 324 305 323 344 328 277 202 213 205 181 177 175 178 176 175 175 183 173 178 167 144 160 187 180 179 171 165 170
173 182 187 197 204 205 208 202 220 249 326 49 347 316 323 331 329 342 327 353 214 196 194 168 156 160 170 175 167 173 178 165 173 176 165 141 164 156 175 175 171 165 160
182 182 186 195 200 203 202 195 210 234 315 297 345 335 343 352 324 330 5 21 94 173 174 166 167 157 132 165 155 147 147 158 169 157 163 165 156 158 142 152 154 160 155
179 179 184 190 195 197 193 190 211 233 242 353 358 15 355 353 352 334 19 57 81 154 184 165 166 161 153 174 159 151 157 156 166 164 163 157 142 149 121 125 135 140 151
172 175 181 185 188 191 192 191 202 225 222 312 349 357 344 356 10 68 65 52 54 125 165 168 160 172 180 177 176 154 156 149 149 152 162 147 146 140 135 134 139 144 154
164 169 176 178 184 186 188 189 204 214 212 258 342 12 357 25 57 86 67 63 55 103 143 167 174 185 178 171 178 159 150 149 145 145 152 149 139 149 155 149 142 139 149
162 171 177 177 181 184 188 188 194 207 185 230 354 28 349 32 70 71 60 62 63 98 132 144 159 178 177 173 163 147 145 145 139 140 148 138 135 161 156 152 154 137 141
163 171 174 179 180 184 187 185 196 197 193 214 122 67 358 46 67 59 62 50 83 107 121 134 153 153 154 152 152 146 141 140 142 151 146 150 149 158 163 155 146 145 140
166 172 174 178 180 184 185 185 192 196 192 176 115 98 49 64 48 56 64 62 92 112 105 127 130 144 147 147 149 152 150 138 128 133 148 147 152 159 168 176 172 162 155
171 172 176 177 182 183 185 186 189 188 189 174 166 119 106 96 77 67 75 82 102 112 99 117 127 138 142 146 152 157 153 148 143 138 123 140 146 167 167 165 166 172 166
174 175 176 177 184 183 186 185 189 188 190 180 162 142 128 111 91 90 87 78 105 122 121 122 125 137 142 147 151 154 156 168 167 159 137 156 145 150 162 168 174 172 165
175 175 178 180 187 184 185 185 187 188 187 178 174 153 140 140 108 105 99 90 87 109 124 135 127 142 145 148 149 152 158 161 153 159 139 144 145 149 156 164 153 160 165
176 178 180 184 188 186 186 184 186 184 184 181 175 160 148 127 105 102 92 89 101 100 113 127 121 129 142 139 138 144 154 156 148 152 151 155 152 153 159 154 152 162 164
176 182 184 185 187 186 187 187 186 183 182 182 178 167 158 144 130 118 116 111 99 107 98 104 101 120 126 130 126 126 131 137 129 127 149 144 143 150 164 160 151 158 171
182 186 186 188 187 187 188 188 185 184 182 182 183 175 165 154 149 145 129 123 119 109 104 115 125 122 116 119 133 131 129 130 135 136 135 145 152 152 156 165 165 167 176
187 187 187 190 190 189 190 187 186 185 181 183 185 181 172 171 163 155 149 141 137 129 138 118 133 136 129 123 123 129 138 147 145 142 142 146 155 163 165 169 172 173 178
188 187 186 188 188 188 190 187 186 187 185 185 186 184 179 179 169 169 168 167 157 146 144 137 142 138 132 131 129 131 131 133 137 138 154 165 165 167 168 162 169 173 177
186 188 185 183 184 189 189 189 187 188 188 188 187 187 185 185 178 179 188 188 168 161 149 158 168 167 155 145 145 147 148 150 145 154 169 168 165 164 161 170 176 176 184
186 183 181 179 188 190 191 190 191 189 192 191 189 189 187 190 185 185 194 193 175 171 159 175 183 183 182 177 169 150 166 168 166 180 172 180 177 168 164 167 170 172 170
177 179 181 183 194 191 193 192 192 194 193 192 191 191 190 193 192 192 205 199 181 183 172 189 185 205 192 189 181 165 176 198 186 183 176 170 163 164 160 172 168 163 181
173 176 178 182 193 194 194 194 197 196 193 194 191 191 191 192 195 198 204 205 186 193 182 198 204 202 203 195 188 176 173 177 168 179 170 162 159 165 173 175 175 181 211
176 177 179 181 192 197 198 197 198 196 194 196 193 192 197 192 199 197 198 204 196 193 200 195 206 201 218 193 187 182 180 172 172 183 174 175 178 183 188 187 207 230 245
192 179 182 178 188 203 202 200 195 196 196 198 194 193 201 196 205 209 210 209 203 188 211 202 204 197 219 198 190 187 184 178 178 179 191 188 195 200 207 223 244 253 261
202 179 191 182 190 202 195 198 194 195 198 198 196 198 203 204 205 216 208 203 215 201 203 202 204 197 212 214 198 195 190 187 186 190 198 203 207 223 242 247 255 261 239
182 179 187 191 188 195 197 199 196 198 198 198 198 195 193 206 203 214 204 216 208 224 196 207 209 205 216 219 202 203 199 198 201 204 207 215 226 237 245 257 236 174 199
Wind_Speed_850mb
37 41 41 33 28 21 17 12 10 10 15 14 21 20 21 13 18 23 21 14 17 24 18 16 17 19 22 34 34 47 43 36 38 39 33 28 30 36 48 56 61 59 65
42 43 40 38 31 23 16 16 7 11 10 6 15 26 22 16 17 18 20 14 7 18 20 17 20 23 21 27 32 45 45 43 45 43 36 24 23 29 52 61 64 65 63
43 46 42 40 32 25 22 14 12 11 6 4 13 18 24 21 13 13 17 17 3 13 17 22 20 18 21 27 30 34 36 37 44 32 36 29 18 44 53 58 68 64 63
46 49 45 41 35 27 21 17 13 6 8 4 7 22 26 26 12 8 19 14 5 12 14 30 22 25 20 20 27 25 23 32 43 32 39 29 42 34 45 68 72 58 70
51 53 48 42 34 27 25 18 12 7 7 9 15 14 21 25 20 5 13 10 9 9 19 30 28 31 18 20 25 28 34 32 37 39 40 36 48 35 57 68 69 64 67
46 47 43 40 34 28 24 19 13 10 6 3 12 18 26 28 19 8 9 17 12 6 18 32 35 27 23 27 24 27 34 34 36 37 34 41 47 57 67 72 73 64 60
45 47 46 43 36 29 26 18 14 9 6 3 6 12 21 19 24 18 14 15 21 13 20 29 33 31 25 27 29 27 31 35 39 40 46 39 44 57 66 69 68 67 58
44 46 46 42 36 29 26 20 15 12 6 3 2 10 9 18 23 24 18 16 18 17 23 21 25 26 26 34 32 34 38 37 50 47 46 50 44 59 60 77 82 68 64
42 45 45 40 34 30 26 20 15 13 9 3 1 7 10 13 19 20 23 26 20 26 22 26 22 29 32 34 40 45 51 48 51 49 45 45 45 51 67 69 78 74 56
40 44 43 39 31 29 27 22 17 14 10 5 2 6 5 16 17 18 17 21 24 32 29 32 34 35 41 45 48 47 50 49 45 43 41 38 45 52 61 51 56 58 68
44 45 43 38 31 29 27 26 19 15 13 8 7 9 7 13 9 15 19 21 27 24 26 35 38 41 41 46 47 48 49 44 45 40 35 35 43 59 57 65 56 51 51
45 43 42 38 34 31 31 27 23 17 15 11 10 13 11 12 9 19 26 28 21 23 27 34 39 42 43 40 39 37 41 40 38 35 27 46 48 52 54 52 45 49 35
43 42 42 40 38 35 34 27 25 21 18 16 14 16 14 15 14 14 23 32 29 27 34 36 39 39 44 39 36 36 38 39 37 30 32 52 50 50 51 56 40 36 26
47 43 43 42 41 38 36 31 27 25 21 21 16 19 16 15 21 23 18 28 31 40 38 36 31 32 34 30 34 38 43 38 37 34 35 40 47 47 60 48 34 33 26
51 47 45 45 45 43 39 34 29 30 26 24 22 22 21 22 23 23 24 24 28 38 37 41 37 24 35 38 41 43 41 42 49 44 43 47 48 41 52 45 34 35 31
52 49 47 46 48 49 45 39 33 34 29 28 25 24 25 24 26 24 27 25 28 25 25 28 33 33 41 31 39 44 42 47 44 42 45 45 33 35 31 26 31 32 30
54 54 53 51 52 52 48 45 38 37 34 31 29 29 31 28 27 25 27 29 27 28 26 13 29 38 41 39 39 38 43 45 41 37 40 39 37 33 39 42 39 35 38
51 59 57 54 55 52 50 46 42 39 37 34 31 33 32 31 30 27 27 31 33 26 21 18 30 35 37 39 41 38 38 41 43 38 35 43 46 40 37 38 47 38 38
49 60 61 57 56 55 53 51 47 44 40 37 36 35 37 37 35 32 32 25 34 31 28 22 26 31 35 41 38 32 37 36 40 30 28 33 35 35 32 32 33 31 28
44 54 62 63 59 59 59 58 53 50 46 41 39 35 38 40 39 39 35 28 31 31 30 23 20 25 35 36 34 29 23 30 35 34 29 33 30 33 35 31 31 29 23
44 49 67 69 66 66 65 65 59 56 49 42 40 38 38 43 41 41 40 36 33 27 29 25 26 23 32 37 38 36 27 22 29 28 33 34 37 40 38 33 30 21 16
42 50 64 71 69 69 69 67 63 56 50 46 43 42 41 42 43 44 41 37 38 33 35 32 29 28 30 38 41 41 30 27 24 24 32 34 36 38 34 28 20 17 16
40 45 55 66 69 71 74 72 64 57 52 49 48 48 46 40 44 47 43 39 42 34 39 34 35 31 32 39 47 51 41 39 33 28 36 37 37 35 27 18 15 15 19
37 46 54 65 70 70 71 72 65 61 55 53 53 54 50 42 44 44 48 44 44 45 36 39 35 36 34 39 53 60 52 50 39 38 32 30 29 25 24 21 21 24 25
37 47 46 56 63 65 67 68 67 66 61 59 57 57 56 47 48 43 43 44 41 46 42 41 37 40 45 42 53 58 55 57 46 41 33 30 27 25 25 25 26 16 8
39 44 38 38 56 60 63 67 71 69 67 65 63 63 57 52 52 49 43 35 39 30 43 38 38 39 42 35 45 52 52 53 48 37 31 28 25 24 18 9 5 13 24
Wind_Direction_850mb
187 190 196 201 209 211 224 233 249 277 304 14 330 317 327 338 337 333 328 306 260 231 226 229 207 182 179 181 179 179 179 179 175 177 178 174 185 187 176 169 169 165 159
165 180 192 198 207 214 211 221 237 263 300 319 306 343 333 324 305 323 344 328 277 202 213 205 181 177 175 178 176 175 175 183 173 178 167 144 160 187 180 179 171 165 170
173 182 187 197 204 205 208 202 220 249 326 49 347 316 323 331 329 342 327 353 214 196 194 168 156 160 170 175 167 173 178 165 173 176 165 141 164 156 175 175 171 165 160
182 182 186 195 200 203 202 195 210 234 315 297 345 335 343 352 324 330 5 21 94 173 174 166 167 157 132 165 155 147 147 158 169 157 163 165 156 158 142 152 154 160 155
179 179 184 190 195 197 193 190 211 233 242 353 358 15 355 353 352 334 19 57 81 154 184 165 166 161 153 174 159 151 157 156 166 164 163 157 142 149 121 125 135 140 151
172 175 181 185 188 191 192 191 202 225 222 312 349 357 344 356 10 68 65 52 54 125 165 168 160 172 180 177 176 154 156 149 149 152 162 147 146 140 135 134 139 144 154
164 169 176 178 184 186 188 189 204 214 212 258 342 12 357 25 57 86 67 63 55 103 143 167 174 185 178 171 178 159 150 149 145 145 152 149 139 149 155 149 142 139 149
162 171 177 177 181 184 188 188 194 207 185 230 354 28 349 32 70 71 60 62 63 98 132 144 159 178 177 173 163 147 145 145 139 140 148 138 135 161 156 152 154 137 141
163 171 174 179 180 184 187 185 196 197 193 214 122 67 358 46 67 59 62 50 83 107 121 134 153 153 154 152 152 146 141 140 142 151 146 150 149 158 163 155 146 145 140
166 172 174 178 180 184 185 185 192 196 192 176 115 98 49 64 48 56 64 62 92 112 105 127 130 144 147 147 149 152 150 138 128 133 148 147 152 159 168 176 172 162 155
171 172 176 177 182 183 185 186 189 188 189 174 166 119 106 96 77 67 75 82 102 112 99 117 127 138 142 146 152 157 153 148 143 138 123 140 146 167 167 165 166 172 166
174 175 176 177 184 183 186 185 189 188 190 180 162 142 128 111 91 90 87 78 105 122 121 122 125 137 142 147 151 154 156 168 167 159 137 156 145 150 162 168 174 172 165
175 175 178 180 187 184 185 185 187 188 187 178 174 153 140 140 108 105 99 90 87 109 124 135 127 142 145 148 149 152 158 161 153 159 139 144 145 149 156 164 153 160 165
176 178 180 184 188 186 186 184 186 184 184 181 175 160 148 127 105 102 92 89 101 100 113 127 121 129 142 139 138 144 154 156 148 152 151 155 152 153 159 154 152 162 164
176 182 184 185 187 186 187 187 186 183 182 182 178 167 158 144 130 118 116 111 99 107 98 104 101 120 126 130 126 126 131 137 129 127 149 144 143 150 164 160 151 158 171
182 186 186 188 187 187 188 188 185 184 182 182 183 175 165 154 149 145 129 123 119 109 104 115 125 122 116 119 133 131 129 130 135 136 135 145 152 152 156 165 165 167 176
187 187 187 190 190 189 190 187 186 185 181 183 185 181 172 171 163 155 149 141 137 129 138 118 133 136 129 123 123 129 138 147 145 142 142 146 155 163 165 169 172 173 178
188 187 186 188 188 188 190 187 186 187 185 185 186 184 179 179 169 169 168 167 157 146 144 137 142 138 132 131 129 131 131 133 137 138 154 165 165 167 168 162 169 173 177
186 188 185 183 184 189 189 189 187 188 188 188 187 187 185 185 178 179 188 188 168 161 149 158 168 167 155 145 145 147 148 150 145 154 169 168 165 164 161 170 176 176 184
186 183 181 179 188 190 191 190 191 189 192 191 189 189 187 190 185 185 194 193 175 171 159 175 183 183 182 177 169 150 166 168 166 180 172 180 177 168 164 167 170 172 170
177 179 181 183 194 191 193 192 192 194 193 192 191 191 190 193 192 192 205 199 181 183 172 189 185 205 192 189 181 165 176 198 186 183 176 170 163 164 160 172 168 163 181
173 176 178 182 193 194 194 194 197 196 193 194 191 191 191 192 195 198 204 205 186 193 182 198 204 202 203 195 188 176 173 177 168 179 170 162 159 165 173 175 175 181 211
176 177 179 181 192 197 198 197 198 196 194 196 193 192 197 192 199 197 198 204 196 193 200 195 206 201 218 193 187 182 180 172 172 183 174 175 178 183 188 187 207 230 245
192 179 182 178 188 203 202 200 195 196 196 198 194 193 201 196 205 209 210 209 203 188 211 202 204 197 219 198 190 187 184 178 178 179 191 188 195 200 207 223 244 253 261
202 179 191 182 190 202 195 198 194 195 198 198 196 198 203 204 205 216 208 203 215 201 203 202 204 197 212 214 198 195 190 187 186 190 198 203 207 223 242 247 255 261 239
182 179 187 191 188 195 197 199 196 198 198 198 198 195 193 206 203 214 204 216 208 224 196 207 209 205 216 219 202 203 199 198 201 204 207 215 226 237 245 257 236 174 199